Location: Nianha
(10.8000°N, 4.6333°W)
Time: 10:42:31
(UTC+00:00)

Cosmos 1766 Rocket - Pass Details

Date: 14 November 2019
Orbit: 604 x 634 km, 82.5° (Epoch: 24 January)

Event Time Altitude Azimuth Distance (km) Brightness Sun altitude
Rises 05:38:08 0° 192° (SSW) 2,854 7.0 -9.1°
Reaches altitude 10° 05:40:23 10° 196° (SSW) 1,948 6.1 -8.6°
Maximum altitude 05:44:36 55° 274° (W) 725 3.6 -7.6°
Drops below altitude 10° 05:48:49 10° 353° (N) 1,944 5.9 -6.6°
Sets 05:51:03 0° 357° (N) 2,847 6.8 -6.1°
